Data No.,UTC Date,UTC Time,Latitude,Longitude,Course(deg),Temp(degC),Sal(psu)
21,2010/12/10,8:42:00,33-55.5100N,137-11.2600E,173,19.045,34.5294
22,2010/12/10,8:43:00,33-55.2600N,137-11.3000E,173,19.034,34.531
23,2010/12/10,8:44:00,33-54.9900N,137-11.3300E,173,19.023,34.5313
24,2010/12/10,8:45:00,33-54.7400N,137-11.3700E,172,19.009,34.5319
25,2010/12/10,8:46:00,33-54.4900N,137-11.4100E,172,18.997,34.5338
26,2010/12/10,8:47:00,33-54.2300N,137-11.4500E,172,18.981,34.5353
27,2010/12/10,8:48:00,33-53.9900N,137-11.4900E,172,18.969,34.5388
28,2010/12/10,8:49:00,33-53.7400N,137-11.5300E,172,18.952,34.5407
29,2010/12/10,8:50:00,33-53.5000N,137-11.5700E,172,18.936,34.5423
30,2010/12/10,8:51:00,33-53.2500N,137-11.6100E,172,18.916,34.5455
31,2010/12/10,8:52:00,33-53.0100N,137-11.6400E,172,18.894,34.5482
32,2010/12/10,8:53:00,33-52.7500N,137-11.6800E,172,18.882,34.5512
33,2010/12/10,8:54:00,33-52.5100N,137-11.7200E,172,18.864,34.5537
34,2010/12/10,8:55:00,33-52.2600N,137-11.7600E,172,18.834,34.5556
35,2010/12/10,8:56:00,33-52.0200N,137-11.8000E,172,18.823,34.5586
36,2010/12/10,8:57:00,33-51.7700N,137-11.8400E,172,18.824,34.5633
37,2010/12/10,8:58:00,33-51.5300N,137-11.8900E,170,18.844,34.5746
38,2010/12/10,8:59:00,33-51.2900N,137-11.9400E,169,19.063,34.582
39,2010/12/10,9:00:00,33-51.0500N,137-11.9900E,170,19.315,34.5813
40,2010/12/10,9:01:00,33-50.8000N,137-12.0400E,170,19.546,34.5793
41,2010/12/10,9:02:00,33-50.5600N,137-12.0900E,170,19.654,34.5865
42,2010/12/10,9:03:00,33-50.3200N,137-12.1300E,170,19.683,34.5908
43,2010/12/10,9:04:00,33-50.0700N,137-12.1800E,170,19.692,34.5871
44,2010/12/10,9:05:00,33-49.8400N,137-12.2300E,170,19.702,34.5831
45,2010/12/10,9:06:00,33-49.5900N,137-12.2800E,170,19.704,34.5756
46,2010/12/10,9:07:00,33-49.3400N,137-12.3300E,170,19.69,34.5732
47,2010/12/10,9:08:00,33-49.1000N,137-12.3800E,170,19.669,34.5756
48,2010/12/10,9:09:00,33-48.8600N,137-12.4300E,170,19.593,34.5777
49,2010/12/10,9:10:00,33-48.6200N,137-12.4700E,170,19.497,34.5793
50,2010/12/10,9:11:00,33-48.3700N,137-12.5200E,172,19.455,34.5807
51,2010/12/10,9:12:00,33-48.1100N,137-12.5600E,172,19.424,34.5778
52,2010/12/10,9:13:00,33-47.8600N,137-12.6000E,173,19.371,34.5765
53,2010/12/10,9:14:00,33-47.6200N,137-12.6300E,173,19.316,34.5747
54,2010/12/10,9:15:00,33-47.3700N,137-12.6600E,173,19.265,34.5709
55,2010/12/10,9:16:00,33-47.1200N,137-12.7000E,174,19.232,34.5672
56,2010/12/10,9:17:00,33-46.8700N,137-12.7300E,173,19.172,34.5645
57,2010/12/10,9:18:00,33-46.6300N,137-12.7600E,173,19.141,34.5619
58,2010/12/10,9:19:00,33-46.3800N,137-12.8000E,173,19.127,34.5594
59,2010/12/10,9:20:00,33-46.1300N,137-12.8300E,173,19.138,34.5578
60,2010/12/10,9:21:00,33-45.8800N,137-12.8700E,173,19.137,34.5567
61,2010/12/10,9:22:00,33-45.6400N,137-12.9000E,172,19.092,34.5583
62,2010/12/10,9:23:00,33-45.3900N,137-12.9400E,172,19.072,34.5599
63,2010/12/10,9:24:00,33-45.1400N,137-12.9900E,172,19.054,34.5608
64,2010/12/10,9:25:00,33-44.9000N,137-13.0300E,171,19.035,34.5614
65,2010/12/10,9:26:00,33-44.6500N,137-13.0700E,170,19.028,34.5609
66,2010/12/10,9:27:00,33-44.4000N,137-13.1200E,171,19.07,34.563
67,2010/12/10,9:28:00,33-44.1600N,137-13.1700E,171,19.092,34.5583
68,2010/12/10,9:29:00,33-43.9200N,137-13.2100E,170,19.103,34.5566
69,2010/12/10,9:30:00,33-43.6700N,137-13.2600E,170,19.108,34.5514
70,2010/12/10,9:31:00,33-43.4200N,137-13.3100E,170,19.106,34.554
71,2010/12/10,9:32:00,33-43.1800N,137-13.3700E,169,19.109,34.5536
72,2010/12/10,9:33:00,33-42.9200N,137-13.4200E,169,19.107,34.5533
73,2010/12/10,9:34:00,33-42.6800N,137-13.4800E,169,19.083,34.5524
74,2010/12/10,9:35:00,33-42.4300N,137-13.5300E,169,19.09,34.5517
75,2010/12/10,9:36:00,33-42.1800N,137-13.5900E,168,19.121,34.5498
76,2010/12/10,9:37:00,33-41.9300N,137-13.6500E,168,19.162,34.553
77,2010/12/10,9:38:00,33-41.6800N,137-13.7100E,168,19.211,34.5578
78,2010/12/10,9:39:00,33-41.4400N,137-13.7700E,168,19.277,34.5581
79,2010/12/10,9:40:00,33-41.1700N,137-13.8500E,166,19.299,34.561
80,2010/12/10,9:41:00,33-40.9200N,137-13.9200E,165,19.317,34.5617
81,2010/12/10,9:42:00,33-40.6800N,137-14.0000E,164,19.33,34.5646
82,2010/12/10,9:43:00,33-40.4300N,137-14.0800E,164,19.405,34.5676
83,2010/12/10,9:44:00,33-40.1900N,137-14.1700E,163,19.432,34.5946
84,2010/12/10,9:45:00,33-39.9400N,137-14.2600E,163,19.447,34.6099
85,2010/12/10,9:46:00,33-39.7000N,137-14.3400E,163,19.346,34.6154
86,2010/12/10,9:47:00,33-39.4500N,137-14.4300E,163,19.275,34.5935
87,2010/12/10,9:48:00,33-39.2100N,137-14.5200E,162,19.241,34.5636
88,2010/12/10,9:49:00,33-38.9800N,137-14.6100E,162,19.245,34.5445
89,2010/12/10,9:50:00,33-38.7300N,137-14.7000E,162,19.266,34.5398
90,2010/12/10,9:51:00,33-38.4900N,137-14.8000E,161,19.279,34.5426
91,2010/12/10,9:52:00,33-38.2500N,137-14.9000E,159,19.533,34.5433
92,2010/12/10,9:53:00,33-38.0100N,137-15.0100E,159,19.968,34.5465
93,2010/12/10,9:54:00,33-37.7600N,137-15.1200E,159,20.214,34.553
94,2010/12/10,9:55:00,33-37.5300N,137-15.2300E,158,20.7,34.5615
95,2010/12/10,9:56:00,33-37.2800N,137-15.3500E,159,21.099,34.571
96,2010/12/10,9:57:00,33-37.0400N,137-15.4600E,158,21.274,34.5815
97,2010/12/10,9:58:00,33-36.8000N,137-15.5700E,159,21.345,34.589
98,2010/12/10,9:59:00,33-36.5500N,137-15.6900E,158,21.385,34.5905
99,2010/12/10,10:00:00,33-36.3100N,137-15.8100E,158,21.403,34.5904
100,2010/12/10,10:01:00,33-36.0800N,137-15.9200E,156,21.506,34.595
101,2010/12/10,10:02:00,33-35.8400N,137-16.0400E,157,21.583,34.6012
102,2010/12/10,10:03:00,33-35.6000N,137-16.1600E,157,21.621,34.605
103,2010/12/10,10:04:00,33-35.3600N,137-16.2800E,158,21.665,34.6078
104,2010/12/10,10:05:00,33-35.1200N,137-16.3700E,164,21.701,34.6086
105,2010/12/10,10:06:00,33-34.8800N,137-16.4400E,166,21.741,34.6099
106,2010/12/10,10:07:00,33-34.6400N,137-16.5000E,167,21.771,34.6131
107,2010/12/10,10:08:00,33-34.3900N,137-16.5700E,168,21.79,34.6157
108,2010/12/10,10:09:00,33-34.1600N,137-16.6300E,167,21.796,34.618
109,2010/12/10,10:10:00,33-33.9000N,137-16.7000E,169,21.796,34.6216
110,2010/12/10,10:11:00,33-33.6600N,137-16.7500E,169,21.788,34.6238
111,2010/12/10,10:12:00,33-33.4200N,137-16.7900E,170,21.777,34.6246
112,2010/12/10,10:13:00,33-33.1800N,137-16.8400E,171,21.769,34.6249
113,2010/12/10,10:14:00,33-32.9400N,137-16.8800E,171,21.759,34.6252
114,2010/12/10,10:15:00,33-32.7000N,137-16.9300E,170,21.71,34.6248
115,2010/12/10,10:16:00,33-32.4600N,137-16.9800E,169,21.671,34.6216
116,2010/12/10,10:17:00,33-32.2200N,137-17.0300E,169,21.714,34.6146
117,2010/12/10,10:18:00,33-31.9800N,137-17.0900E,169,21.755,34.6139
118,2010/12/10,10:19:00,33-31.7400N,137-17.1400E,170,21.784,34.6145
119,2010/12/10,10:20:00,33-31.5000N,137-17.1900E,170,21.794,34.6136
120,2010/12/10,10:21:00,33-31.2700N,137-17.2400E,170,21.815,34.6126
121,2010/12/10,10:22:00,33-31.0300N,137-17.3000E,168,21.865,34.6099
122,2010/12/10,10:23:00,33-30.7900N,137-17.3600E,167,22.09,34.6105
123,2010/12/10,10:24:00,33-30.5500N,137-17.4200E,167,22.285,34.6274
124,2010/12/10,10:25:00,33-30.3100N,137-17.4800E,167,22.404,34.6389
125,2010/12/10,10:26:00,33-30.0700N,137-17.5400E,168,22.478,34.6419
126,2010/12/10,10:27:00,33-29.8400N,137-17.6000E,168,22.521,34.641
127,2010/12/10,10:28:00,33-29.6000N,137-17.6600E,167,22.547,34.6402
128,2010/12/10,10:29:00,33-29.3600N,137-17.7200E,168,22.562,34.639
129,2010/12/10,10:30:00,33-29.1200N,137-17.7800E,167,22.584,34.6375
130,2010/12/10,10:31:00,33-28.8900N,137-17.8400E,167,22.608,34.6375
131,2010/12/10,10:32:00,33-28.6500N,137-17.9000E,167,22.624,34.6366
132,2010/12/10,10:33:00,33-28.4200N,137-17.9600E,168,22.629,34.6366
133,2010/12/10,10:34:00,33-28.1800N,137-18.0100E,168,22.639,34.6363
134,2010/12/10,10:35:00,33-27.9400N,137-18.0700E,168,22.642,34.637
135,2010/12/10,10:36:00,33-27.7000N,137-18.1200E,169,22.642,34.6375
136,2010/12/10,10:37:00,33-27.4500N,137-18.1800E,169,22.648,---
137,2010/12/10,10:38:00,33-27.2100N,137-18.2300E,169,22.658,34.6377
138,2010/12/10,10:39:00,33-26.9700N,137-18.2800E,170,22.664,34.6387
139,2010/12/10,10:40:00,33-26.7400N,137-18.3200E,169,22.675,34.6384
140,2010/12/10,10:41:00,33-26.5000N,137-18.3700E,169,22.69,34.6395
141,2010/12/10,10:42:00,33-26.2600N,137-18.4200E,170,22.697,34.6407
142,2010/12/10,10:43:00,33-26.0200N,137-18.4700E,170,22.697,34.6418
143,2010/12/10,10:44:00,33-25.7900N,137-18.5200E,170,22.698,34.6428
144,2010/12/10,10:45:00,33-25.5500N,137-18.5700E,170,22.697,34.6434
145,2010/12/10,10:46:00,33-25.3200N,137-18.6100E,170,22.699,34.6447
146,2010/12/10,10:47:00,33-25.0800N,137-18.6500E,171,22.694,34.6455
147,2010/12/10,10:48:00,33-24.8400N,137-18.7000E,171,22.703,34.647
148,2010/12/10,10:49:00,33-24.6000N,137-18.7400E,171,22.707,34.6516
149,2010/12/10,10:50:00,33-24.3600N,137-18.7800E,171,22.707,34.6547
150,2010/12/10,10:51:00,33-24.1300N,137-18.8200E,172,22.709,34.6562
151,2010/12/10,10:52:00,33-23.8900N,137-18.8600E,172,22.713,34.6563
152,2010/12/10,10:53:00,33-23.6600N,137-18.8900E,171,22.717,34.6564
153,2010/12/10,10:54:00,33-23.4200N,137-18.9300E,171,22.719,34.6541
154,2010/12/10,10:55:00,33-23.1800N,137-18.9700E,171,22.72,34.656
155,2010/12/10,10:56:00,33-22.9500N,137-19.0100E,171,22.724,34.6564
156,2010/12/10,10:57:00,33-22.7100N,137-19.0500E,172,22.725,34.6548
157,2010/12/10,10:58:00,33-22.4800N,137-19.0900E,172,22.719,34.6542
158,2010/12/10,10:59:00,33-22.2400N,137-19.1300E,172,22.72,34.6535
159,2010/12/10,11:00:00,33-22.0100N,137-19.1700E,171,22.734,34.6546
160,2010/12/10,11:01:00,33-21.7700N,137-19.2000E,172,22.73,34.6552
161,2010/12/10,11:02:00,33-21.5300N,137-19.2400E,173,22.725,34.6563
162,2010/12/10,11:03:00,33-21.2800N,137-19.2800E,171,22.721,34.6555
163,2010/12/10,11:04:00,33-21.0500N,137-19.3200E,170,22.725,34.6536
164,2010/12/10,11:05:00,33-20.8100N,137-19.3700E,171,22.725,34.6538
165,2010/12/10,11:06:00,33-20.5800N,137-19.4200E,170,22.71,34.654
166,2010/12/10,11:07:00,33-20.3400N,137-19.4700E,169,22.71,34.654
167,2010/12/10,11:08:00,33-20.1100N,137-19.5200E,168,22.707,34.6552
168,2010/12/10,11:09:00,33-19.8800N,137-19.5800E,169,22.705,34.6566
169,2010/12/10,11:10:00,33-19.6400N,137-19.6300E,168,22.699,34.6577
170,2010/12/10,11:11:00,33-19.4100N,137-19.6800E,168,22.687,34.6579
171,2010/12/10,11:12:00,33-19.1700N,137-19.7300E,170,22.682,34.6577
172,2010/12/10,11:13:00,33-18.9400N,137-19.7700E,171,22.676,34.6569
173,2010/12/10,11:14:00,33-18.7000N,137-19.8200E,171,22.672,34.6557
174,2010/12/10,11:15:00,33-18.4700N,137-19.8600E,171,22.674,34.6541
175,2010/12/10,11:16:00,33-18.2300N,137-19.9000E,171,22.654,34.6536
176,2010/12/10,11:17:00,33-18.0000N,137-19.9400E,171,22.648,34.6529
177,2010/12/10,11:18:00,33-17.7700N,137-19.9800E,171,22.646,34.6469
178,2010/12/10,11:19:00,33-17.5300N,137-20.0200E,172,22.648,34.6451
179,2010/12/10,11:20:00,33-17.2900N,137-20.0500E,172,22.654,34.642
180,2010/12/10,11:21:00,33-17.0600N,137-20.0900E,172,22.654,34.6415
181,2010/12/10,11:22:00,33-16.8300N,137-20.1300E,171,22.654,34.6423
182,2010/12/10,11:23:00,33-16.5900N,137-20.1700E,172,22.655,34.6433
183,2010/12/10,11:24:00,33-16.3600N,137-20.2100E,172,22.648,34.6426
184,2010/12/10,11:25:00,33-16.1200N,137-20.2400E,172,22.652,34.6433
185,2010/12/10,11:26:00,33-15.8800N,137-20.2800E,172,22.653,34.6443
186,2010/12/10,11:27:00,33-15.6500N,137-20.3100E,172,22.648,34.6443
187,2010/12/10,11:28:00,33-15.4200N,137-20.3500E,172,22.651,34.6456
188,2010/12/10,11:29:00,33-15.1800N,137-20.3800E,172,22.655,34.6473
189,2010/12/10,11:30:00,33-14.9400N,137-20.4200E,172,22.654,34.6464
190,2010/12/10,11:31:00,33-14.6900N,137-20.4600E,172,22.656,34.6461
191,2010/12/10,11:32:00,33-14.4500N,137-20.4900E,172,22.642,34.6473
192,2010/12/10,11:33:00,33-14.2200N,137-20.5200E,172,22.635,34.6462
193,2010/12/10,11:34:00,33-13.9800N,137-20.5600E,172,22.624,34.6437
194,2010/12/10,11:35:00,33-13.7400N,137-20.5900E,173,22.633,34.6416
195,2010/12/10,11:36:00,33-13.5100N,137-20.6300E,172,22.64,34.6419
196,2010/12/10,11:37:00,33-13.2700N,137-20.6600E,173,22.644,34.646
197,2010/12/10,11:38:00,33-13.0400N,137-20.6900E,173,22.646,34.6469
198,2010/12/10,11:39:00,33-12.8000N,137-20.7200E,172,22.642,34.6499
199,2010/12/10,11:40:00,33-12.5600N,137-20.7600E,173,22.64,34.652
200,2010/12/10,11:41:00,33-12.3200N,137-20.7900E,173,22.63,34.6536
201,2010/12/10,11:42:00,33-12.0800N,137-20.8200E,173,22.626,34.6536
202,2010/12/10,11:43:00,33-11.8500N,137-20.8500E,173,22.619,34.6547
203,2010/12/10,11:44:00,33-11.6100N,137-20.8800E,173,22.603,34.6554
204,2010/12/10,11:45:00,33-11.3700N,137-20.9100E,173,22.592,34.655
205,2010/12/10,11:46:00,33-11.1400N,137-20.9500E,173,22.599,34.6582
206,2010/12/10,11:47:00,33-10.9000N,137-20.9800E,173,22.61,34.6582
207,2010/12/10,11:48:00,33-10.6600N,137-21.0100E,173,22.614,34.6577
208,2010/12/10,11:49:00,33-10.4300N,137-21.0400E,174,22.614,34.6564
209,2010/12/10,11:50:00,33-10.1900N,137-21.0800E,173,22.619,34.6565
210,2010/12/10,11:51:00,33-09.9500N,137-21.1100E,174,22.629,34.656
211,2010/12/10,11:52:00,33-09.7200N,137-21.1300E,174,22.634,34.6554
212,2010/12/10,11:53:00,33-09.4900N,137-21.1700E,173,22.629,34.6539
213,2010/12/10,11:54:00,33-09.2500N,137-21.2000E,174,22.62,34.6535
214,2010/12/10,11:55:00,33-09.0100N,137-21.2300E,174,22.619,34.6511
215,2010/12/10,11:56:00,33-08.7700N,137-21.2600E,174,22.614,34.6497
216,2010/12/10,11:57:00,33-08.5300N,137-21.2800E,175,22.601,34.65
217,2010/12/10,11:58:00,33-08.2800N,137-21.3100E,173,22.601,34.6499
218,2010/12/10,11:59:00,33-08.0400N,137-21.3500E,172,22.602,34.6509
219,2010/12/10,12:00:00,33-07.8100N,137-21.3900E,171,22.599,34.6542
220,2010/12/10,12:01:00,33-07.5700N,137-21.4300E,171,22.595,34.6554
221,2010/12/10,12:02:00,33-07.3200N,137-21.4800E,171,22.593,34.6573
222,2010/12/10,12:03:00,33-07.0900N,137-21.5200E,172,22.576,34.6577
223,2010/12/10,12:04:00,33-06.8400N,137-21.5600E,172,22.56,34.6581
224,2010/12/10,12:05:00,33-06.6100N,137-21.6000E,171,22.553,34.6587
225,2010/12/10,12:06:00,33-06.3700N,137-21.6400E,171,22.544,34.6616
226,2010/12/10,12:07:00,33-06.1300N,137-21.6900E,171,22.533,34.6646
227,2010/12/10,12:08:00,33-05.8900N,137-21.7200E,172,22.532,34.6676
228,2010/12/10,12:09:00,33-05.6500N,137-21.7700E,171,22.537,34.6711
229,2010/12/10,12:10:00,33-05.4100N,137-21.8100E,172,22.529,34.6729
230,2010/12/10,12:11:00,33-05.1700N,137-21.8500E,171,22.533,34.6735
231,2010/12/10,12:12:00,33-04.9300N,137-21.8900E,171,22.53,34.6726
232,2010/12/10,12:13:00,33-04.6900N,137-21.9300E,171,22.534,34.6726
233,2010/12/10,12:14:00,33-04.4500N,137-21.9800E,171,22.537,34.6728
234,2010/12/10,12:15:00,33-04.2100N,137-22.0200E,171,22.536,34.673
235,2010/12/10,12:16:00,33-03.9800N,137-22.0600E,171,22.533,34.6722
236,2010/12/10,12:17:00,33-03.7300N,137-22.1000E,171,22.538,34.6715
237,2010/12/10,12:18:00,33-03.4900N,137-22.1500E,171,22.539,34.672
238,2010/12/10,12:19:00,33-03.2600N,137-22.1900E,171,22.534,34.6723
239,2010/12/10,12:20:00,33-03.0200N,137-22.2300E,171,22.532,34.6727
240,2010/12/10,12:21:00,33-02.7800N,137-22.2700E,172,22.532,34.6734
241,2010/12/10,12:22:00,33-02.5400N,137-22.3100E,171,22.527,34.6738
242,2010/12/10,12:23:00,33-02.3000N,137-22.3500E,172,22.522,34.6748
243,2010/12/10,12:24:00,33-02.0600N,137-22.3900E,172,22.518,34.676
244,2010/12/10,12:25:00,33-01.8200N,137-22.4300E,172,22.511,34.6775
245,2010/12/10,12:26:00,33-01.5800N,137-22.4700E,172,22.513,34.6784
246,2010/12/10,12:27:00,33-01.3200N,137-22.5100E,172,22.512,34.6815
247,2010/12/10,12:28:00,33-01.0800N,137-22.5500E,172,22.513,34.682
248,2010/12/10,12:29:00,33-00.8400N,137-22.5900E,171,22.522,34.6821
249,2010/12/10,12:30:00,33-00.6000N,137-22.6400E,171,22.527,34.6815
250,2010/12/10,12:31:00,33-00.3600N,137-22.6800E,171,22.525,34.6822
251,2010/12/10,12:32:00,33-00.1200N,137-22.7200E,171,22.532,34.6816
252,2010/12/10,12:33:00,32-59.8800N,137-22.7600E,172,22.536,34.6805
253,2010/12/10,12:34:00,32-59.6400N,137-22.8000E,171,22.551,34.6802
254,2010/12/10,12:35:00,32-59.4000N,137-22.8400E,171,22.592,34.6806
255,2010/12/10,12:36:00,32-59.1600N,137-22.8800E,171,22.635,34.6784
256,2010/12/10,12:37:00,32-58.9200N,137-22.9300E,171,22.659,34.6766
257,2010/12/10,12:38:00,32-58.6900N,137-22.9700E,172,22.676,34.6754
258,2010/12/10,12:39:00,32-58.4500N,137-23.0100E,172,22.676,34.6728
259,2010/12/10,12:40:00,32-58.2100N,137-23.0500E,171,22.663,34.6713
260,2010/12/10,12:41:00,32-57.9800N,137-23.0900E,170,22.661,34.6668
261,2010/12/10,12:42:00,32-57.7400N,137-23.1400E,170,22.652,34.6574
262,2010/12/10,12:43:00,32-57.5000N,137-23.1900E,170,22.635,34.6595
263,2010/12/10,12:44:00,32-57.2700N,137-23.2300E,170,22.64,34.6566
264,2010/12/10,12:45:00,32-57.0300N,137-23.2800E,170,22.627,34.6565
265,2010/12/10,12:46:00,32-56.7900N,137-23.3300E,170,22.618,34.6569
266,2010/12/10,12:47:00,32-56.5500N,137-23.3700E,171,22.591,34.6577
267,2010/12/10,12:48:00,32-56.3200N,137-23.4200E,170,22.532,34.6589
268,2010/12/10,12:49:00,32-56.0800N,137-23.4600E,171,22.502,34.6597
269,2010/12/10,12:50:00,32-55.8500N,137-23.5100E,171,22.48,34.6594
270,2010/12/10,12:51:00,32-55.6000N,137-23.5500E,171,22.456,34.661
271,2010/12/10,12:52:00,32-55.3700N,137-23.5900E,171,22.426,34.6603
272,2010/12/10,12:53:00,32-55.1300N,137-23.6300E,172,22.41,34.6602
273,2010/12/10,12:54:00,32-54.9000N,137-23.6700E,172,22.385,34.6596
274,2010/12/10,12:55:00,32-54.6400N,137-23.7200E,170,22.308,34.6596
275,2010/12/10,12:56:00,32-54.4100N,137-23.7600E,170,22.289,34.6601
276,2010/12/10,12:57:00,32-54.1700N,137-23.8100E,171,22.329,34.6624
277,2010/12/10,12:58:00,32-53.9400N,137-23.8500E,171,22.366,34.6635
278,2010/12/10,12:59:00,32-53.7100N,137-23.9000E,171,22.398,34.6616
279,2010/12/10,13:00:00,32-53.4800N,137-23.9400E,171,22.438,34.6633
280,2010/12/10,13:01:00,32-53.2500N,137-23.9800E,171,22.478,34.6648
281,2010/12/10,13:02:00,32-53.0100N,137-24.0100E,172,22.497,34.6649
282,2010/12/10,13:03:00,32-52.7800N,137-24.0500E,172,22.515,34.6646
283,2010/12/10,13:04:00,32-52.5500N,137-24.0900E,172,22.517,34.665
284,2010/12/10,13:05:00,32-52.3200N,137-24.1300E,172,22.503,34.6663
285,2010/12/10,13:06:00,32-52.0800N,137-24.1700E,172,22.476,34.6673
286,2010/12/10,13:07:00,32-51.8400N,137-24.2000E,172,22.418,34.6679
287,2010/12/10,13:08:00,32-51.6100N,137-24.2400E,171,22.294,34.6689
288,2010/12/10,13:09:00,32-51.3700N,137-24.2900E,169,22.009,34.6695
289,2010/12/10,13:10:00,32-51.1500N,137-24.3400E,170,21.935,34.6689
290,2010/12/10,13:11:00,32-50.9100N,137-24.3800E,170,21.923,34.6691
291,2010/12/10,13:12:00,32-50.6900N,137-24.4200E,170,21.896,34.6691
292,2010/12/10,13:13:00,32-50.4500N,137-24.4700E,170,21.88,34.67
293,2010/12/10,13:14:00,32-50.2300N,137-24.5200E,169,21.878,34.6713
294,2010/12/10,13:15:00,32-50.0000N,137-24.5700E,169,21.903,34.671
295,2010/12/10,13:16:00,32-49.7700N,137-24.6200E,170,21.915,34.6704
296,2010/12/10,13:17:00,32-49.5400N,137-24.6800E,169,21.916,34.6729
297,2010/12/10,13:18:00,32-49.3100N,137-24.7300E,168,21.909,34.6755
298,2010/12/10,13:19:00,32-49.0800N,137-24.7800E,169,21.903,34.6759
299,2010/12/10,13:20:00,32-48.8500N,137-24.8400E,168,21.896,34.6738
300,2010/12/10,13:21:00,32-48.6200N,137-24.8900E,169,21.891,34.6731
301,2010/12/10,13:22:00,32-48.4000N,137-24.9400E,169,21.868,34.6758
302,2010/12/10,13:23:00,32-48.1400N,137-25.0000E,168,21.844,34.6741
303,2010/12/10,13:24:00,32-47.9200N,137-25.0500E,168,21.827,34.6718
304,2010/12/10,13:25:00,32-47.6900N,137-25.1100E,168,21.831,34.6688
305,2010/12/10,13:26:00,32-47.4700N,137-25.1600E,169,21.834,34.6671
306,2010/12/10,13:27:00,32-47.2400N,137-25.2100E,168,21.841,34.6667
307,2010/12/10,13:28:00,32-47.0100N,137-25.2600E,169,21.844,34.6672
308,2010/12/10,13:29:00,32-46.7800N,137-25.3200E,168,21.848,34.6665
309,2010/12/10,13:30:00,32-46.5600N,137-25.3700E,168,21.846,34.6664
310,2010/12/10,13:31:00,32-46.3300N,137-25.4300E,167,21.856,34.6674
311,2010/12/10,13:32:00,32-46.1100N,137-25.4800E,168,21.912,34.6674
312,2010/12/10,13:33:00,32-45.8800N,137-25.5400E,167,22.006,34.6681
313,2010/12/10,13:34:00,32-45.6600N,137-25.6000E,167,22.098,34.6678
314,2010/12/10,13:35:00,32-45.4300N,137-25.6600E,168,22.136,34.6673
315,2010/12/10,13:36:00,32-45.2200N,137-25.7100E,168,22.147,34.6668
316,2010/12/10,13:37:00,32-45.0000N,137-25.7700E,168,22.158,34.6647
317,2010/12/10,13:38:00,32-44.7700N,137-25.8200E,168,22.169,34.6633
318,2010/12/10,13:39:00,32-44.5500N,137-25.8700E,168,22.187,34.6641
319,2010/12/10,13:40:00,32-44.3300N,137-25.9200E,168,22.205,34.6651
320,2010/12/10,13:41:00,32-44.1000N,137-25.9700E,169,22.224,34.6652
321,2010/12/10,13:42:00,32-43.8800N,137-26.0200E,169,22.221,34.666
322,2010/12/10,13:43:00,32-43.6600N,137-26.0700E,170,22.215,34.6656
323,2010/12/10,13:44:00,32-43.4300N,137-26.1200E,169,22.21,34.6654
324,2010/12/10,13:45:00,32-43.2100N,137-26.1700E,169,22.185,34.6647
325,2010/12/10,13:46:00,32-42.9900N,137-26.2200E,170,22.129,34.6648
326,2010/12/10,13:47:00,32-42.7600N,137-26.2600E,169,22.069,34.6665
327,2010/12/10,13:48:00,32-42.5300N,137-26.3200E,168,22.024,34.6684
328,2010/12/10,13:49:00,32-42.3100N,137-26.3700E,168,22.026,34.6685
329,2010/12/10,13:50:00,32-42.0700N,137-26.4300E,168,22.024,34.6674
330,2010/12/10,13:51:00,32-41.8400N,137-26.4800E,169,22.013,34.6664
331,2010/12/10,13:52:00,32-41.6100N,137-26.5300E,169,22.003,34.6671
332,2010/12/10,13:53:00,32-41.3900N,137-26.5900E,169,21.984,34.6689
333,2010/12/10,13:54:00,32-41.1600N,137-26.6300E,169,21.96,34.669
334,2010/12/10,13:55:00,32-40.9300N,137-26.6900E,169,21.964,34.6698
335,2010/12/10,13:56:00,32-40.7100N,137-26.7400E,169,21.959,34.6736
336,2010/12/10,13:57:00,32-40.4900N,137-26.7900E,168,21.959,34.6753
337,2010/12/10,13:58:00,32-40.2600N,137-26.8400E,168,21.96,34.6741
338,2010/12/10,13:59:00,32-40.0300N,137-26.9000E,167,21.946,34.6748
339,2010/12/10,14:00:00,32-39.8100N,137-26.9500E,168,21.939,34.6748
340,2010/12/10,14:01:00,32-39.5800N,137-27.0100E,168,21.934,34.6717
341,2010/12/10,14:02:00,32-39.3600N,137-27.0700E,168,21.928,34.6693
342,2010/12/10,14:03:00,32-39.1400N,137-27.1200E,167,21.928,34.6689
343,2010/12/10,14:04:00,32-38.9100N,137-27.1800E,167,21.93,34.6685
344,2010/12/10,14:05:00,32-38.6900N,137-27.2400E,168,21.937,34.6696
345,2010/12/10,14:06:00,32-38.4600N,137-27.3000E,167,21.949,34.6702
346,2010/12/10,14:07:00,32-38.2500N,137-27.3500E,167,21.954,34.6722
347,2010/12/10,14:08:00,32-38.0200N,137-27.4100E,168,21.952,34.6729
348,2010/12/10,14:09:00,32-37.8000N,137-27.4700E,167,21.955,34.6725
349,2010/12/10,14:10:00,32-37.5800N,137-27.5300E,167,21.958,34.672
350,2010/12/10,14:11:00,32-37.3500N,137-27.6000E,166,21.96,34.6718
351,2010/12/10,14:12:00,32-37.1300N,137-27.6600E,166,21.982,34.6715
352,2010/12/10,14:13:00,32-36.9100N,137-27.7200E,166,22.046,34.6725
353,2010/12/10,14:14:00,32-36.6900N,137-27.7900E,165,22.09,34.6712
354,2010/12/10,14:15:00,32-36.4600N,137-27.8500E,166,22.124,34.6696
355,2010/12/10,14:16:00,32-36.2500N,137-27.9200E,165,22.213,34.6676
356,2010/12/10,14:17:00,32-36.0300N,137-27.9800E,165,22.311,34.666
357,2010/12/10,14:18:00,32-35.7900N,137-28.0500E,165,22.4,34.6665
358,2010/12/10,14:19:00,32-35.5700N,137-28.1200E,165,22.446,34.6671
359,2010/12/10,14:20:00,32-35.3500N,137-28.1900E,165,22.474,34.6677
360,2010/12/10,14:21:00,32-35.1400N,137-28.2600E,164,22.499,34.6674
361,2010/12/10,14:22:00,32-34.9200N,137-28.3200E,167,22.529,34.6667
362,2010/12/10,14:23:00,32-34.7000N,137-28.3700E,168,22.561,34.6663
363,2010/12/10,14:24:00,32-34.4800N,137-28.4300E,168,22.592,34.6662
364,2010/12/10,14:25:00,32-34.2600N,137-28.4700E,169,22.618,34.6666
365,2010/12/10,14:26:00,32-34.0400N,137-28.5300E,169,22.642,34.6664
366,2010/12/10,14:27:00,32-33.8200N,137-28.5800E,168,22.664,34.6654
367,2010/12/10,14:28:00,32-33.6000N,137-28.6200E,169,22.682,34.6659
368,2010/12/10,14:29:00,32-33.3800N,137-28.6700E,169,22.69,34.6655
369,2010/12/10,14:30:00,32-33.1600N,137-28.7200E,169,22.697,34.6646
370,2010/12/10,14:31:00,32-32.9300N,137-28.7700E,170,22.692,34.6647